Location: Alt?nova Orta
(36.9295°N, 30.7847°E)
Time: 15:07:08
(UTC+00:00)

Cosmos 2221 - Pass Details

Date: 17 February 2020
Orbit: 593 x 615 km, 82.5° (Epoch: 27 March)

Event Time Altitude Azimuth Distance (km) Brightness Sun altitude
Rises 02:35:04 0° 170° (S) 2,816 6.0 -26.4°
Reaches altitude 10° 02:37:19 10° 164° (SSE) 1,920 5.2 -25.9°
Maximum altitude 02:41:21 44° 92° (E) 833 3.6 -25.1°
Drops below altitude 10° 02:45:25 10° 21° (NNE) 1,942 5.4 -24.3°
Sets 02:47:42 0° 15° (NNE) 2,852 6.2 -23.9°
